Time,TemperatureF,DewpointF,PressureIn,WindDirection,WindDirectionDegrees,WindSpeedMPH,WindSpeedGustMPH,Humidity,HourlyPrecipIn,Conditions,Clouds,dailyrainin,SoftwareType,DateUTC
2013-05-01 00:03:00,38.3,33.0,30.36,SSE,160,0.0,1.0,82,0.00,,,0.00,weatherlink.com 1.10,2013-05-01 04:03:00,
2013-05-01 00:18:00,38.3,34.0,30.36,SSE,160,0.0,1.0,83,0.00,,,0.00,weatherlink.com 1.10,2013-05-01 04:18:00,
2013-05-01 00:33:00,37.9,34.0,30.36,SSE,160,0.0,1.0,84,0.00,,,0.00,weatherlink.com 1.10,2013-05-01 04:33:00,
2013-05-01 00:48:00,37.7,34.0,30.37,SSE,160,0.0,1.0,85,0.00,,,0.00,weatherlink.com 1.10,2013-05-01 04:48:00,
2013-05-01 01:03:00,37.3,34.0,30.37,SSE,160,0.0,0.0,86,0.00,,,0.00,weatherlink.com 1.10,2013-05-01 05:03:00,
2013-05-01 01:18:00,36.9,33.0,30.37,SSE,160,0.0,1.0,86,0.00,,,0.00,weatherlink.com 1.10,2013-05-01 05:18:00,
2013-05-01 01:33:00,36.4,33.0,30.37,SSE,160,0.0,0.0,86,0.00,,,0.00,weatherlink.com 1.10,2013-05-01 05:33:00,
2013-05-01 01:48:00,36.3,33.0,30.37,SSE,160,0.0,0.0,87,0.00,,,0.00,weatherlink.com 1.10,2013-05-01 05:48:00,
2013-05-01 02:03:00,36.1,32.0,30.36,SSE,160,1.0,2.0,86,0.00,,,0.00,weatherlink.com 1.10,2013-05-01 06:03:00,
2013-05-01 02:18:00,36.1,33.0,30.36,SSE,160,0.0,1.0,88,0.00,,,0.00,weatherlink.com 1.10,2013-05-01 06:18:00,
2013-05-01 02:33:00,36.1,33.0,30.36,SSE,160,0.0,2.0,88,0.00,,,0.00,weatherlink.com 1.10,2013-05-01 06:33:00,
2013-05-01 02:48:00,36.0,33.0,30.36,SSE,160,0.0,0.0,89,0.00,,,0.00,weatherlink.com 1.10,2013-05-01 06:48:00,
2013-05-01 03:03:00,36.0,33.0,30.37,SSE,160,1.0,1.0,90,0.00,,,0.00,weatherlink.com 1.10,2013-05-01 07:03:00,
2013-05-01 03:18:00,36.2,34.0,30.38,SSE,160,0.0,1.0,91,0.00,,,0.00,weatherlink.com 1.10,2013-05-01 07:18:00,
2013-05-01 03:33:00,35.9,34.0,30.38,SSE,160,0.0,0.0,91,0.00,,,0.00,weatherlink.com 1.10,2013-05-01 07:33:00,
2013-05-01 03:48:00,35.8,34.0,30.38,SSE,160,0.0,0.0,92,0.00,,,0.00,weatherlink.com 1.10,2013-05-01 07:48:00,
2013-05-01 04:03:00,35.7,34.0,30.38,SSE,160,0.0,0.0,92,0.00,,,0.00,weatherlink.com 1.10,2013-05-01 08:03:00,
2013-05-01 04:18:00,35.6,34.0,30.38,SSE,160,0.0,0.0,92,0.00,,,0.00,weatherlink.com 1.10,2013-05-01 08:18:00,
2013-05-01 04:33:00,35.4,33.0,30.38,SSE,160,0.0,1.0,92,0.00,,,0.00,weatherlink.com 1.10,2013-05-01 08:33:00,
2013-05-01 04:48:00,35.7,34.0,30.38,SSE,160,0.0,0.0,93,0.00,,,0.00,weatherlink.com 1.10,2013-05-01 08:48:00,
2013-05-01 05:03:00,35.7,34.0,30.38,SSE,160,0.0,0.0,93,0.00,,,0.00,weatherlink.com 1.10,2013-05-01 09:03:00,
2013-05-01 05:18:00,35.7,34.0,30.39,SSE,160,0.0,0.0,93,0.00,,,0.00,weatherlink.com 1.10,2013-05-01 09:18:00,
2013-05-01 05:33:00,35.6,34.0,30.40,SSE,160,0.0,0.0,94,0.00,,,0.00,weatherlink.com 1.10,2013-05-01 09:33:00,
2013-05-01 05:48:00,35.3,34.0,30.41,SSE,160,0.0,0.0,94,0.00,,,0.00,weatherlink.com 1.10,2013-05-01 09:48:00,
2013-05-01 06:03:00,35.1,34.0,30.41,SSE,160,0.0,0.0,94,0.00,,,0.00,weatherlink.com 1.10,2013-05-01 10:03:00,
2013-05-01 06:18:00,36.0,35.0,30.42,SSE,160,0.0,0.0,95,0.00,,,0.00,weatherlink.com 1.10,2013-05-01 10:18:00,
2013-05-01 06:33:00,37.1,36.0,30.42,SSE,160,0.0,2.0,95,0.00,,,0.00,weatherlink.com 1.10,2013-05-01 10:33:00,
2013-05-01 06:48:00,40.2,39.0,30.43,ESE,111,0.0,2.0,96,0.00,,,0.00,weatherlink.com 1.10,2013-05-01 10:48:00,
2013-05-01 07:03:00,42.9,42.0,30.44,NNE,32,0.0,3.0,95,0.00,,,0.00,weatherlink.com 1.10,2013-05-01 11:03:00,
2013-05-01 07:19:00,45.4,43.0,30.44,ENE,68,1.0,4.0,92,0.00,,,0.00,weatherlink.com 1.10,2013-05-01 11:19:00,
2013-05-01 07:34:00,47.8,45.0,30.44,NE,55,0.0,4.0,89,0.00,,,0.00,weatherlink.com 1.10,2013-05-01 11:34:00,
2013-05-01 07:49:00,50.5,46.0,30.44,NE,34,4.0,7.0,85,0.00,,,0.00,weatherlink.com 1.10,2013-05-01 11:49:00,
2013-05-01 08:05:00,52.7,47.0,30.45,NNE,30,3.0,8.0,81,0.00,,,0.00,weatherlink.com 1.10,2013-05-01 12:05:00,
2013-05-01 08:19:00,54.0,47.0,30.45,ENE,72,3.0,7.0,77,0.00,,,0.00,weatherlink.com 1.10,2013-05-01 12:19:00,
2013-05-01 08:34:00,54.9,47.0,30.45,NE,43,2.0,9.0,75,0.00,,,0.00,weatherlink.com 1.10,2013-05-01 12:34:00,
2013-05-01 08:49:00,55.9,47.0,30.45,ENE,61,9.0,10.0,72,0.00,,,0.00,weatherlink.com 1.10,2013-05-01 12:49:00,
2013-05-01 09:04:00,57.4,48.0,30.45,WNW,302,0.0,8.0,70,0.00,,,0.00,weatherlink.com 1.10,2013-05-01 13:04:00,
2013-05-01 09:19:00,58.3,48.0,30.45,ENE,71,2.0,11.0,69,0.00,,,0.00,weatherlink.com 1.10,2013-05-01 13:19:00,
2013-05-01 09:34:00,58.7,49.0,30.45,East,86,2.0,9.0,69,0.00,,,0.00,weatherlink.com 1.10,2013-05-01 13:34:00,
2013-05-01 09:49:00,60.2,49.0,30.45,SE,146,4.0,10.0,66,0.00,,,0.00,weatherlink.com 1.10,2013-05-01 13:49:00,
2013-05-01 10:04:00,61.0,49.0,30.46,ENE,64,2.0,11.0,64,0.00,,,0.00,weatherlink.com 1.10,2013-05-01 14:04:00,
2013-05-01 10:19:00,61.5,48.0,30.46,ENE,76,4.0,10.0,62,0.00,,,0.00,weatherlink.com 1.10,2013-05-01 14:19:00,
2013-05-01 10:34:00,62.6,48.0,30.46,NE,35,2.0,10.0,60,0.00,,,0.00,weatherlink.com 1.10,2013-05-01 14:34:00,
2013-05-01 10:49:00,62.9,49.0,30.46,NNW,345,7.0,13.0,60,0.00,,,0.00,weatherlink.com 1.10,2013-05-01 14:49:00,
2013-05-01 11:04:00,62.9,48.0,30.47,NE,51,8.0,14.0,59,0.00,,,0.00,weatherlink.com 1.10,2013-05-01 15:04:00,
2013-05-01 11:19:00,62.8,49.0,30.47,NE,42,5.0,12.0,60,0.00,,,0.00,weatherlink.com 1.10,2013-05-01 15:19:00,
2013-05-01 11:34:00,62.9,49.0,30.47,East,79,3.0,12.0,60,0.00,,,0.00,weatherlink.com 1.10,2013-05-01 15:34:00,
2013-05-01 11:50:00,63.7,49.0,30.47,ENE,58,11.0,12.0,59,0.00,,,0.00,weatherlink.com 1.10,2013-05-01 15:50:00,
2013-05-01 12:05:00,63.6,48.0,30.47,NE,46,10.0,14.0,58,0.00,,,0.00,weatherlink.com 1.10,2013-05-01 16:05:00,
2013-05-01 12:20:00,64.1,49.0,30.47,SE,130,1.0,13.0,58,0.00,,,0.00,weatherlink.com 1.10,2013-05-01 16:20:00,
2013-05-01 12:35:00,64.9,47.0,30.46,ESE,106,7.0,12.0,53,0.00,,,0.00,weatherlink.com 1.10,2013-05-01 16:35:00,
2013-05-01 12:50:00,66.2,48.0,30.46,SE,145,2.0,12.0,52,0.00,,,0.00,weatherlink.com 1.10,2013-05-01 16:50:00,
2013-05-01 13:05:00,65.8,46.0,30.46,ENE,63,7.0,14.0,50,0.00,,,0.00,weatherlink.com 1.10,2013-05-01 17:05:00,
2013-05-01 13:35:00,66.1,46.0,30.45,ENE,75,4.0,11.0,48,0.00,,,0.00,weatherlink.com 1.10,2013-05-01 17:35:00,
2013-05-01 13:50:00,66.3,46.0,30.46,South,181,1.0,13.0,48,0.00,,,0.00,weatherlink.com 1.10,2013-05-01 17:50:00,
2013-05-01 14:05:00,67.0,46.0,30.45,NE,51,5.0,15.0,47,0.00,,,0.00,weatherlink.com 1.10,2013-05-01 18:05:00,
2013-05-01 14:20:00,66.0,46.0,30.45,ESE,112,4.0,13.0,49,0.00,,,0.00,weatherlink.com 1.10,2013-05-01 18:20:00,
2013-05-01 14:35:00,65.6,45.0,30.45,NE,46,3.0,11.0,47,0.00,,,0.00,weatherlink.com 1.10,2013-05-01 18:35:00,
2013-05-01 14:50:00,66.9,45.0,30.45,ENE,71,2.0,10.0,46,0.00,,,0.00,weatherlink.com 1.10,2013-05-01 18:50:00,
2013-05-01 15:05:00,69.2,46.0,30.45,NNW,329,4.0,13.0,44,0.00,,,0.00,weatherlink.com 1.10,2013-05-01 19:05:00,
2013-05-01 15:20:00,67.5,40.0,30.45,ENE,78,2.0,13.0,37,0.00,,,0.00,weatherlink.com 1.10,2013-05-01 19:20:00,
2013-05-01 15:35:00,65.3,41.0,30.45,East,100,3.0,13.0,42,0.00,,,0.00,weatherlink.com 1.10,2013-05-01 19:35:00,
2013-05-01 15:50:00,66.8,42.0,30.44,SSE,150,3.0,12.0,40,0.00,,,0.00,weatherlink.com 1.10,2013-05-01 19:50:00,
2013-05-01 16:05:00,65.8,44.0,30.44,ESE,102,7.0,12.0,45,0.00,,,0.00,weatherlink.com 1.10,2013-05-01 20:05:00,
2013-05-01 16:20:00,66.1,43.0,30.44,SE,125,1.0,11.0,44,0.00,,,0.00,weatherlink.com 1.10,2013-05-01 20:20:00,
2013-05-01 16:35:00,67.2,46.0,30.44,ENE,58,7.0,9.0,46,0.00,,,0.00,weatherlink.com 1.10,2013-05-01 20:35:00,
2013-05-01 16:50:00,66.2,45.0,30.44,NE,49,2.0,8.0,46,0.00,,,0.00,weatherlink.com 1.10,2013-05-01 20:50:00,
2013-05-01 17:05:00,66.7,46.0,30.44,ENE,63,4.0,9.0,47,0.00,,,0.00,weatherlink.com 1.10,2013-05-01 21:05:00,
2013-05-01 17:20:00,66.2,46.0,30.44,ENE,65,3.0,9.0,48,0.00,,,0.00,weatherlink.com 1.10,2013-05-01 21:20:00,
2013-05-01 17:35:00,66.4,46.0,30.44,East,82,3.0,9.0,48,0.00,,,0.00,weatherlink.com 1.10,2013-05-01 21:35:00,
2013-05-01 17:50:00,65.7,47.0,30.44,NE,42,4.0,8.0,51,0.00,,,0.00,weatherlink.com 1.10,2013-05-01 21:50:00,
2013-05-01 18:05:00,64.8,47.0,30.44,ENE,59,5.0,8.0,52,0.00,,,0.00,weatherlink.com 1.10,2013-05-01 22:05:00,
2013-05-01 18:20:00,64.1,47.0,30.44,NE,52,1.0,8.0,54,0.00,,,0.00,weatherlink.com 1.10,2013-05-01 22:20:00,
2013-05-01 18:35:00,63.4,47.0,30.45,NE,53,5.0,7.0,55,0.00,,,0.00,weatherlink.com 1.10,2013-05-01 22:35:00,
2013-05-01 18:50:00,62.6,46.0,30.45,ENE,65,3.0,7.0,56,0.00,,,0.00,weatherlink.com 1.10,2013-05-01 22:50:00,
2013-05-01 19:05:00,60.9,46.0,30.45,NE,46,3.0,6.0,59,0.00,,,0.00,weatherlink.com 1.10,2013-05-01 23:05:00,
2013-05-01 19:20:00,59.9,46.0,30.45,ENE,75,2.0,3.0,61,0.00,,,0.00,weatherlink.com 1.10,2013-05-01 23:20:00,
2013-05-01 19:35:00,57.6,45.0,30.45,East,96,2.0,3.0,64,0.00,,,0.00,weatherlink.com 1.10,2013-05-01 23:35:00,
2013-05-01 19:50:00,55.6,46.0,30.46,East,96,0.0,2.0,69,0.00,,,0.00,weatherlink.com 1.10,2013-05-01 23:50:00,
2013-05-01 20:05:00,54.5,45.0,30.46,East,96,0.0,0.0,71,0.00,,,0.00,weatherlink.com 1.10,2013-05-02 00:05:00,
2013-05-01 20:20:00,53.3,46.0,30.46,East,96,0.0,1.0,75,0.00,,,0.00,weatherlink.com 1.10,2013-05-02 00:20:00,
2013-05-01 20:35:00,52.2,45.0,30.46,East,96,0.0,0.0,77,0.00,,,0.00,weatherlink.com 1.10,2013-05-02 00:35:00,
2013-05-01 20:50:00,51.3,45.0,30.46,East,96,0.0,0.0,79,0.00,,,0.00,weatherlink.com 1.10,2013-05-02 00:50:00,
2013-05-01 21:05:00,50.4,45.0,30.46,East,96,0.0,0.0,81,0.00,,,0.00,weatherlink.com 1.10,2013-05-02 01:05:00,
2013-05-01 21:20:00,49.6,44.0,30.46,East,96,0.0,0.0,82,0.00,,,0.00,weatherlink.com 1.10,2013-05-02 01:20:00,
2013-05-01 21:35:00,49.2,45.0,30.46,East,96,0.0,0.0,85,0.00,,,0.00,weatherlink.com 1.10,2013-05-02 01:35:00,
2013-05-01 21:50:00,48.8,45.0,30.46,ESE,109,1.0,2.0,86,0.00,,,0.00,weatherlink.com 1.10,2013-05-02 01:50:00,
2013-05-01 22:05:00,48.4,45.0,30.47,ESE,109,0.0,1.0,87,0.00,,,0.00,weatherlink.com 1.10,2013-05-02 02:05:00,
2013-05-01 22:20:00,47.8,44.0,30.46,ESE,109,0.0,0.0,87,0.00,,,0.00,weatherlink.com 1.10,2013-05-02 02:20:00,
2013-05-01 22:35:00,47.1,44.0,30.46,ESE,109,0.0,0.0,89,0.00,,,0.00,weatherlink.com 1.10,2013-05-02 02:35:00,
2013-05-01 22:50:00,46.1,43.0,30.46,ESE,109,0.0,0.0,89,0.00,,,0.00,weatherlink.com 1.10,2013-05-02 02:50:00,
2013-05-01 23:05:00,45.1,43.0,30.45,ESE,109,0.0,0.0,91,0.00,,,0.00,weatherlink.com 1.10,2013-05-02 03:05:00,
2013-05-01 23:20:00,45.0,43.0,30.46,ESE,109,0.0,0.0,92,0.00,,,0.00,weatherlink.com 1.10,2013-05-02 03:20:00,
2013-05-01 23:35:00,44.7,43.0,30.46,ESE,109,0.0,0.0,92,0.00,,,0.00,weatherlink.com 1.10,2013-05-02 03:35:00,
2013-05-01 23:50:00,43.8,42.0,30.45,ESE,109,0.0,0.0,92,0.00,,,0.00,weatherlink.com 1.10,2013-05-02 03:50:00,